Middlesboro, KY

7:51 AM CDT on October 22, 2017 (GMT -0500)
Middlesboro

Weather History for K1A6 - November, 2012

Change the Weather History Date:

Thursday, November 29, 2012

  Actual Average (KLOZ) Record (KLOZ)
Temperature  
Mean Temperature 40 °F -  
Max Temperature 57 °F 48 °F 74 °F (2006)
Min Temperature 23 °F 30 °F 7 °F (1976)
Degree Days  
Heating Degree Days 25    
Moisture  
Dew Point 30 °F    
Average Humidity 80    
Maximum Humidity 100    
Minimum Humidity 41    
Precipitation  
Precipitation 0.00 in - - ()
Sea Level Pressure  
Sea Level Pressure 30.37 in    
Wind  
Wind Speed 1 mph (South)    
Max Wind Speed 10 mph    
Max Gust Speed 17 mph    
Visibility 9 miles    
Events      
Averages and records for this station are not official NWS values.
T = Trace of Precipitation, MM = Missing Value Source: NWS Daily Summary

Daily Weather History Graph

Daily Weather History Graph

Search for Another Location

Airport or City:

Trip Planner

Search our weather history database for the weather conditions in past years. The results will help you decide how hot, cold, wet, or windy it might be!

Date:

Astronomy

Nov. 29, 2012 Rise Set
Actual Time 6:27 AM CST 4:19 PM CST
Civil Twilight 5:58 AM CST 4:47 PM CST
Nautical Twilight 5:26 AM CST 5:19 PM CST
Astronomical Twilight 4:55 AM CST 5:50 PM CST
Moon 5:21 PM CST (11/29) 7:12 AM CST (11/29)
Length of Visible Light 10h 49m
Length of Day
9h 52m
Full, 99% of the Moon is Illuminated
Nov 29
Full
Dec 6
Last Quarter
Dec 13
New
Dec 19
First Quarter
Dec 28
Full

Hourly Weather History & Observations

Time (CST) Temp. Dew Point Humidity Pressure Visibility Wind Dir Wind Speed Gust Speed Precip Events Conditions
12:15 AM 26.6 °F 26.6 °F 100% 30.39 in 10.0 mi Calm Calm - N/A   Clear
12:35 AM 26.6 °F 26.6 °F 100% 30.39 in 10.0 mi Calm Calm - N/A   Clear
12:55 AM 26.6 °F 26.6 °F 100% 30.39 in 7.0 mi Calm Calm - N/A   Clear
1:15 AM 26.6 °F 24.8 °F 93% 30.40 in 10.0 mi Calm Calm - N/A   Clear
1:35 AM 26.6 °F 24.8 °F 93% 30.40 in 7.0 mi Calm Calm - N/A   Clear
1:55 AM 26.6 °F 24.8 °F 93% 30.41 in 7.0 mi Calm Calm - N/A   Clear
2:15 AM 24.8 °F 24.8 °F 100% 30.41 in 10.0 mi Calm Calm - N/A   Clear
2:35 AM 24.8 °F 24.8 °F 100% 30.41 in 7.0 mi Calm Calm - N/A   Clear
2:55 AM 24.8 °F 24.8 °F 100% 30.41 in 10.0 mi Calm Calm - N/A   Clear
3:15 AM 24.8 °F 24.8 °F 100% 30.40 in 7.0 mi Calm Calm - N/A   Clear
3:35 AM 24.8 °F 24.8 °F 100% 30.40 in 10.0 mi Calm Calm - N/A   Clear
3:55 AM 24.8 °F 23.0 °F 93% 30.40 in 10.0 mi Calm Calm - N/A   Clear
4:15 AM 24.8 °F 24.8 °F 100% 30.41 in 10.0 mi Calm Calm - N/A   Clear
4:35 AM 24.8 °F 24.8 °F 100% 30.41 in 10.0 mi Calm Calm - N/A   Clear
4:55 AM 24.8 °F 23.0 °F 93% 30.41 in 7.0 mi Calm Calm - N/A   Clear
5:15 AM 24.8 °F 23.0 °F 93% 30.42 in 7.0 mi Calm Calm - N/A   Clear
5:35 AM 24.8 °F 23.0 °F 93% 30.42 in 10.0 mi Calm Calm - N/A   Clear
5:55 AM 23.0 °F 23.0 °F 100% 30.42 in 7.0 mi Calm Calm - N/A   Clear
6:15 AM 24.8 °F 23.0 °F 93% 30.43 in 7.0 mi Calm Calm - N/A   Clear
6:35 AM 23.0 °F 21.2 °F 93% 30.43 in 10.0 mi Calm Calm - N/A   Clear
6:55 AM 23.0 °F 21.2 °F 93% 30.43 in 7.0 mi Calm Calm - N/A   Clear
7:15 AM 24.8 °F 23.0 °F 93% 30.44 in 10.0 mi Calm Calm - N/A   Clear
7:35 AM 24.8 °F 24.8 °F 100% 30.43 in 7.0 mi Calm Calm - N/A   Clear
7:55 AM 26.6 °F 24.8 °F 93% 30.44 in 7.0 mi Calm Calm - N/A   Clear
8:15 AM 28.4 °F 26.6 °F 93% 30.44 in 7.0 mi Calm Calm - N/A   Clear
8:35 AM 30.2 °F 30.2 °F 100% 30.44 in 10.0 mi Calm Calm - N/A   Clear
8:55 AM 33.8 °F 30.2 °F 87% 30.44 in 10.0 mi Calm Calm - N/A   Clear
9:15 AM 35.6 °F 30.2 °F 81% 30.44 in 7.0 mi Calm Calm - N/A   Clear
9:35 AM 37.4 °F 32.0 °F 81% 30.43 in 7.0 mi Calm Calm - N/A   Clear
9:55 AM 39.2 °F 32.0 °F 75% 30.43 in 10.0 mi Calm Calm - N/A   Clear
10:15 AM 42.8 °F 33.8 °F 70% 30.42 in 10.0 mi Calm Calm - N/A   Clear
10:35 AM 44.6 °F 33.8 °F 66% 30.41 in 10.0 mi Calm Calm - N/A   Clear
10:55 AM 50.0 °F 30.2 °F 47% 30.40 in 10.0 mi SSE 4.6 mph - N/A   Clear
11:15 AM 51.8 °F 32.0 °F 47% 30.39 in 10.0 mi SE 5.8 mph - N/A   Clear
11:35 AM 51.8 °F 33.8 °F 50% 30.38 in 10.0 mi SSE 5.8 mph - N/A   Clear
11:55 AM 53.6 °F 33.8 °F 47% 30.37 in 10.0 mi SSE 9.2 mph - N/A   Clear
12:15 PM 53.6 °F 33.8 °F 47% 30.36 in 10.0 mi South 10.4 mph 17.3 mph N/A   Clear
12:35 PM 55.4 °F 33.8 °F 44% 30.35 in 10.0 mi South 9.2 mph - N/A   Clear
12:55 PM 55.4 °F 32.0 °F 41% 30.33 in 10.0 mi South 9.2 mph - N/A   Clear
1:15 PM 57.2 °F 33.8 °F 41% 30.33 in 10.0 mi South 9.2 mph - N/A   Clear
1:35 PM 57.2 °F 33.8 °F 41% 30.31 in 10.0 mi South 10.4 mph - N/A   Clear
1:55 PM 57.2 °F 33.8 °F 41% 30.31 in 10.0 mi South 6.9 mph - N/A   Clear
2:15 PM 57.2 °F 33.8 °F 41% 30.31 in 10.0 mi South 6.9 mph - N/A   Clear
3:15 PM 55.4 °F 33.8 °F 44% 30.30 in 10.0 mi North - - N/A   Clear
3:35 PM 55.4 °F 32.0 °F 41% 30.30 in 10.0 mi Calm Calm - N/A   Clear
3:55 PM 53.6 °F 33.8 °F 47% 30.31 in 10.0 mi Calm Calm - N/A   Clear
4:15 PM 50.0 °F 35.6 °F 58% 30.31 in 10.0 mi Calm Calm - N/A   Clear
4:35 PM 46.4 °F 35.6 °F 66% 30.31 in 10.0 mi North - - N/A   Clear
4:55 PM 44.6 °F 35.6 °F 71% 30.31 in 10.0 mi Calm Calm - N/A   Clear
5:15 PM 42.8 °F 35.6 °F 76% 30.32 in 10.0 mi Calm Calm - N/A   Clear
5:35 PM 39.2 °F 33.8 °F 81% 30.32 in 10.0 mi Calm Calm - N/A   Clear
5:55 PM 39.2 °F 33.8 °F 81% 30.33 in 10.0 mi Calm Calm - N/A   Clear
6:15 PM 37.4 °F 32.0 °F 81% 30.33 in 10.0 mi Calm Calm - N/A   Clear
6:35 PM 37.4 °F 33.8 °F 87% 30.33 in 10.0 mi Calm Calm - N/A   Clear
6:55 PM 35.6 °F 32.0 °F 87% 30.33 in 10.0 mi Calm Calm - N/A   Clear
7:15 PM 35.6 °F 32.0 °F 87% 30.33 in 10.0 mi Calm Calm - N/A   Clear
7:35 PM 35.6 °F 32.0 °F 87% 30.33 in 10.0 mi Calm Calm - N/A   Clear
7:55 PM 35.6 °F 32.0 °F 87% 30.34 in 10.0 mi Calm Calm - N/A   Clear
8:15 PM 33.8 °F 32.0 °F 93% 30.34 in 10.0 mi Calm Calm - N/A   Clear
8:35 PM 33.8 °F 30.2 °F 87% 30.34 in 10.0 mi Calm Calm - N/A   Clear
8:55 PM 33.8 °F 32.0 °F 93% 30.33 in 7.0 mi Calm Calm - N/A   Clear
9:15 PM 33.8 °F 30.2 °F 87% 30.33 in 7.0 mi Calm Calm - N/A   Clear
9:35 PM 33.8 °F 30.2 °F 87% 30.33 in 7.0 mi Calm Calm - N/A   Clear
9:55 PM 33.8 °F 30.2 °F 87% 30.33 in 10.0 mi Calm Calm - N/A   Clear
10:15 PM 33.8 °F 32.0 °F 93% 30.32 in 10.0 mi Calm Calm - N/A   Clear
10:35 PM 33.8 °F 32.0 °F 93% 30.32 in 10.0 mi Calm Calm - N/A   Clear
10:55 PM 33.8 °F 32.0 °F 93% 30.32 in 10.0 mi Calm Calm - N/A   Clear
11:15 PM 33.8 °F 32.0 °F 93% 30.32 in 7.0 mi Calm Calm - N/A   Clear
11:35 PM 33.8 °F 32.0 °F 93% 30.32 in 7.0 mi Calm Calm - N/A   Clear
11:55 PM 32.0 °F 30.2 °F 93% 30.32 in 7.0 mi Calm Calm - N/A   Clear